Location: Newark
(34.1333°N, 7.9667°W)
Time: 04:43:59
(UTC+00:00)

Hubble Space Telescope - Visible Passes

Search period start: 03 February 2023 00:00
Search period end: 13 February 2023 00:00
Orbit: 529 x 532 km, 28.5° (Epoch: 02 February)

Date Brightness Start Highest point End Pass type
(mag) Time Alt. Az. Time Alt. Az. Time Alt. Az.
03 Feb 3.8 04:53:03 10° SE 04:53:03 10° SE 04:53:05 10° SE visible
10 Feb 3.4 20:18:57 10° SSW 20:19:25 12° SSW 20:19:25 12° SSW visible
11 Feb 2.8 20:05:23 10° SSW 20:07:10 18° S 20:07:10 18° S visible
12 Feb 2.4 19:51:54 10° SW 19:54:52 23° S 19:54:52 23° S visible
